User: anonymous   Login
Location: Ditterswind
(50.1692°N, 10.6348°E)
Time: 14:04:36
(UTC+00:00)
Language:

MOZ.5/SAFIR/RUBIN 5/SL-8 - Orbit

View from above orbital plane
View from above orbital plane
View from above satellite
View from above satellite

Ground track
Ground track

The orbit data is extracted from the following two-line orbital elements,

1 28898U 05043G   21125.91302069  .00000080  00000-0  25938-4 0  9997
2 28898  98.1158 251.9714 0020883  62.6977 297.6347 14.60510296450265
Epoch (UTC): 05 May 2021 21:54:44
Eccentricity: 0.0020883
inclination: 98.1158°
perigee height: 677 km
apogee height: 706 km
right ascension of ascending node: 251.9714°
argument of perigee: 62.6977°
revolutions per day: 14.60510296
mean anomaly at epoch: 297.6347°
orbit number at epoch: 45026

The dashed part of the orbit path shows where the satellite is in the earth's shadow,  

DLR